Location: Rounton
(54.4000°N, 1.3500°W)
Time: 02:10:37
(UTC+01:00)

Vanguard 3 - Pass Details

Date: 22 April 2024
Orbit: 509 x 3233 km, 33.3° (Epoch: 23 May)

Event Time Altitude Azimuth Distance (km) Brightness Sun altitude
Exits shadow 03:52:25 10° 196° (SSW) 5,346 10.8 -14.4°
Maximum altitude 04:00:27 17° 163° (SSE) 4,118 10.5 -13.6°
Drops below altitude 10° 04:06:45 10° 128° (SE) 4,023 10.8 -12.9°
Sets 04:10:55 0° 109° (ESE) 4,533 11.4 -12.5°
